When you browse on this site, cookies collect data to enhance your experience and personalize the content and advertising you see.
Visit our Privacy Policy to learn more. By continuing to use the site, you agree to this use of cookies and data.
  • In Schweiz
  • Länderverzeichnis
  • Für 7 Tage
  • Wassertemperatur
  • Wetterkarte
  • Widgets
  • user-avatar
    Anmelden

    Stündliche Wetter Kitzbühel

    Heute, 2 Juni, Dienstag

    Zeit Temperatur Niederschläge Wind Luftdruck Luftfeuchtigkeit
    00:00 +9°C° 0 mm 1 m/S 678 mmHg 95%
    01:00 +9°C° 0 mm 1 m/S 678 mmHg 95%
    02:00 +8°C° 0 mm 1 m/S 678 mmHg 95%
    03:00 +8°C° 0 mm 1 m/S 677 mmHg 95%
    04:00 +8°C° 0 mm 1 m/S 677 mmHg 94%
    05:00 +10°C° 0 mm 1 m/S 677 mmHg 89%
    06:00 +11°C° 0 mm 0 m/S 678 mmHg 83%
    07:00 +13°C° 0 mm 0 m/S 678 mmHg 77%
    08:00 +15°C° 0 mm 1 m/S 678 mmHg 69%
    09:00 +18°C° 0 mm 1 m/S 679 mmHg 60%
    10:00 +18°C° 0 mm 2 m/S 679 mmHg 52%
    11:00 +19°C° 0 mm 2 m/S 678 mmHg 49%
    12:00 +19°C° 0 mm 2 m/S 678 mmHg 46%
    13:00 +20°C° 0 mm 3 m/S 678 mmHg 43%
    14:00 +20°C° 0.1 mm 3 m/S 677 mmHg 45%
    15:00 +19°C° 0.1 mm 3 m/S 677 mmHg 46%
    16:00 +19°C° 0.1 mm 3 m/S 677 mmHg 47%
    17:00 +18°C° 0 mm 2 m/S 676 mmHg 56%
    18:00 +16°C° 0 mm 2 m/S 676 mmHg 66%
    19:00 +15°C° 0 mm 1 m/S 675 mmHg 75%
    20:00 +13°C° 0 mm 1 m/S 675 mmHg 80%
    21:00 +11°C° 0 mm 1 m/S 675 mmHg 84%
    22:00 +9°C° 0 mm 1 m/S 675 mmHg 89%
    23:00 +9°C° 0 mm 1 m/S 675 mmHg 89%

    Morgen, 3 Juni, Mittwoch

    Zeit Temperatur Niederschläge Wind Luftdruck Luftfeuchtigkeit
    00:00 +9°C° 0 mm 1 m/S 674 mmHg 89%
    01:00 +8°C° 0 mm 1 m/S 674 mmHg 88%
    02:00 +8°C° 0 mm 1 m/S 673 mmHg 86%
    03:00 +8°C° 0 mm 1 m/S 673 mmHg 84%
    04:00 +8°C° 0 mm 1 m/S 673 mmHg 82%
    05:00 +10°C° 0 mm 1 m/S 673 mmHg 75%
    06:00 +12°C° 0 mm 1 m/S 673 mmHg 67%
    07:00 +13°C° 0 mm 0 m/S 673 mmHg 59%
    08:00 +15°C° 0 mm 0 m/S 673 mmHg 52%
    09:00 +20°C° 0 mm 1 m/S 673 mmHg 45%
    10:00 +22°C° 0 mm 1 m/S 674 mmHg 38%
    11:00 +22°C° 0 mm 1 m/S 673 mmHg 36%
    12:00 +23°C° 0 mm 1 m/S 673 mmHg 33%
    13:00 +24°C° 0 mm 2 m/S 672 mmHg 31%
    14:00 +23°C° 0 mm 2 m/S 672 mmHg 34%
    15:00 +21°C° 0 mm 2 m/S 671 mmHg 38%
    16:00 +21°C° 0 mm 2 m/S 671 mmHg 41%
    17:00 +20°C° 0.1 mm 1 m/S 670 mmHg 53%
    18:00 +19°C° 0.1 mm 1 m/S 670 mmHg 65%
    19:00 +16°C° 0.1 mm 1 m/S 669 mmHg 77%
    20:00 +15°C° 0 mm 1 m/S 669 mmHg 79%
    21:00 +13°C° 0 mm 2 m/S 669 mmHg 81%
    22:00 +12°C° 0 mm 2 m/S 669 mmHg 83%
    23:00 +12°C° 0 mm 2 m/S 668 mmHg 83%

    übermorgen, 4 Juni, Donnerstag

    Zeit Temperatur Niederschläge Wind Luftdruck Luftfeuchtigkeit
    00:00 +10°C° 0 mm 2 m/S 668 mmHg 83%
    01:00 +10°C° 0 mm 2 m/S 667 mmHg 84%
    02:00 +10°C° 0 mm 2 m/S 667 mmHg 85%
    03:00 +10°C° 0 mm 1 m/S 667 mmHg 87%
    04:00 +10°C° 0 mm 1 m/S 666 mmHg 88%
    05:00 +11°C° 0 mm 1 m/S 666 mmHg 84%
    06:00 +13°C° 0 mm 1 m/S 667 mmHg 80%
    07:00 +13°C° 0 mm 0 m/S 667 mmHg 76%
    08:00 +13°C° 0.3 mm 0 m/S 667 mmHg 79%
    09:00 +13°C° 0.3 mm 0 m/S 666 mmHg 81%
    10:00 +14°C° 0.3 mm 0 m/S 666 mmHg 84%
    11:00 +15°C° 0.2 mm 1 m/S 666 mmHg 82%
    12:00 +15°C° 0.2 mm 1 m/S 666 mmHg 80%
    13:00 +16°C° 0.2 mm 1 m/S 665 mmHg 78%
    14:00 +16°C° 0.1 mm 1 m/S 665 mmHg 74%
    15:00 +18°C° 0.1 mm 1 m/S 665 mmHg 71%
    16:00 +19°C° 0.1 mm 1 m/S 665 mmHg 67%
    17:00 +18°C° 0.7 mm 1 m/S 664 mmHg 75%
    18:00 +15°C° 0.7 mm 2 m/S 664 mmHg 84%
    19:00 +13°C° 0.7 mm 2 m/S 664 mmHg 93%
    20:00 +12°C° 1.7 mm 2 m/S 664 mmHg 94%
    21:00 +11°C° 1.7 mm 1 m/S 664 mmHg 96%
    22:00 +10°C° 1.7 mm 1 m/S 663 mmHg 98%
    23:00 +10°C° 1.6 mm 1 m/S 663 mmHg 98%

    5 Juni, Freitag

    Zeit Temperatur Niederschläge Wind Luftdruck Luftfeuchtigkeit
    00:00 +9°C° 1.6 mm 1 m/S 663 mmHg 98%
    01:00 +9°C° 1.6 mm 1 m/S 662 mmHg 98%
    02:00 +9°C° 2.5 mm 1 m/S 662 mmHg 98%
    03:00 +8°C° 2.5 mm 1 m/S 662 mmHg 98%
    04:00 +8°C° 2.5 mm 1 m/S 662 mmHg 98%
    05:00 +8°C° 3 mm 1 m/S 662 mmHg 98%
    06:00 +8°C° 3 mm 1 m/S 662 mmHg 98%
    07:00 +8°C° 3 mm 1 m/S 663 mmHg 98%
    08:00 +7°C° 2.1 mm 1 m/S 663 mmHg 98%
    09:00 +7°C° 2.1 mm 1 m/S 663 mmHg 98%
    10:00 +7°C° 2.1 mm 1 m/S 664 mmHg 98%
    11:00 +6°C° 0.9 mm 2 m/S 664 mmHg 97%
    12:00 +6°C° 0.9 mm 2 m/S 664 mmHg 97%
    13:00 +6°C° 0.9 mm 2 m/S 665 mmHg 96%
    14:00 +6°C° 0.6 mm 2 m/S 665 mmHg 94%
    15:00 +6°C° 0.6 mm 2 m/S 665 mmHg 92%
    16:00 +6°C° 0.6 mm 2 m/S 666 mmHg 90%
    17:00 +7°C° 0.2 mm 1 m/S 666 mmHg 89%
    18:00 +7°C° 0.2 mm 1 m/S 667 mmHg 89%
    19:00 +7°C° 0.2 mm 1 m/S 667 mmHg 89%
    20:00 +6°C° 0 mm 1 m/S 667 mmHg 89%
    21:00 +5°C° 0 mm 1 m/S 668 mmHg 88%
    22:00 +4°C° 0 mm 1 m/S 668 mmHg 88%
    23:00 +4°C° 0 mm 1 m/S 668 mmHg 87%

    6 Juni, Samstag

    Zeit Temperatur Niederschläge Wind Luftdruck Luftfeuchtigkeit
    00:00 +4°C° 0 mm 1 m/S 669 mmHg 87%
    01:00 +3°C° 0 mm 1 m/S 669 mmHg 86%
    02:00 +4°C° 0 mm 1 m/S 669 mmHg 88%
    03:00 +4°C° 0 mm 1 m/S 670 mmHg 90%
    04:00 +4°C° 0 mm 1 m/S 670 mmHg 92%
    05:00 +5°C° 0 mm 1 m/S 671 mmHg 90%
    06:00 +6°C° 0 mm 1 m/S 671 mmHg 88%
    07:00 +8°C° 0 mm 1 m/S 671 mmHg 85%
    08:00 +10°C° 0.1 mm 1 m/S 672 mmHg 77%
    09:00 +12°C° 0.1 mm 1 m/S 672 mmHg 69%
    10:00 +15°C° 0.1 mm 1 m/S 673 mmHg 61%
    11:00 +15°C° 0 mm 1 m/S 673 mmHg 59%
    12:00 +16°C° 0 mm 1 m/S 673 mmHg 58%
    13:00 +16°C° 0 mm 1 m/S 673 mmHg 56%
    14:00 +16°C° 0 mm 1 m/S 673 mmHg 56%
    15:00 +18°C° 0 mm 1 m/S 673 mmHg 56%
    16:00 +17°C° 0 mm 2 m/S 673 mmHg 56%
    17:00 +16°C° 0 mm 1 m/S 672 mmHg 64%
    18:00 +15°C° 0 mm 1 m/S 672 mmHg 72%
    19:00 +14°C° 0 mm 1 m/S 672 mmHg 80%
    20:00 +12°C° 0 mm 1 m/S 672 mmHg 84%
    21:00 +11°C° 0 mm 1 m/S 672 mmHg 88%
    22:00 +9°C° 0 mm 1 m/S 672 mmHg 92%
    23:00 +8°C° 0 mm 2 m/S 672 mmHg 91%

    7 Juni, Sonntag

    Zeit Temperatur Niederschläge Wind Luftdruck Luftfeuchtigkeit
    00:00 +8°C° 0 mm 2 m/S 672 mmHg 91%
    01:00 +7°C° 0 mm 2 m/S 672 mmHg 91%
    02:00 +7°C° 0 mm 2 m/S 672 mmHg 90%
    03:00 +8°C° 0 mm 2 m/S 671 mmHg 88%
    04:00 +8°C° 0 mm 2 m/S 671 mmHg 87%
    05:00 +9°C° 0 mm 2 m/S 671 mmHg 82%
    06:00 +12°C° 0 mm 2 m/S 672 mmHg 78%
    07:00 +13°C° 0 mm 2 m/S 672 mmHg 73%
    08:00 +15°C° 0 mm 2 m/S 672 mmHg 68%
    09:00 +17°C° 0 mm 2 m/S 673 mmHg 64%
    10:00 +18°C° 0 mm 2 m/S 673 mmHg 59%
    11:00 +19°C° 0.1 mm 1 m/S 673 mmHg 63%
    12:00 +18°C° 0.1 mm 1 m/S 673 mmHg 68%
    13:00 +18°C° 0.1 mm 1 m/S 673 mmHg 72%
    14:00 +16°C° 0.5 mm 1 m/S 673 mmHg 78%
    15:00 +15°C° 0.5 mm 1 m/S 673 mmHg 84%
    16:00 +15°C° 0.5 mm 2 m/S 673 mmHg 89%
    17:00 +14°C° 0.5 mm 1 m/S 673 mmHg 92%
    18:00 +13°C° 0.5 mm 1 m/S 673 mmHg 95%
    19:00 +12°C° 0.5 mm 1 m/S 673 mmHg 99%
    20:00 +11°C° 1 mm 1 m/S 673 mmHg 99%
    21:00 +11°C° 1 mm 1 m/S 674 mmHg 99%
    22:00 +11°C° 1 mm 1 m/S 674 mmHg 99%
    23:00 +10°C° 0.5 mm 1 m/S 674 mmHg 99%
    Mehr zeigen